• In Hungary
  • List of Countries
  • For 7 days
  • Water Temperature
  • Satellite Maps
  • Weather Map
  • News
  • Weather Widgets
  • user-avatar
    Login

    Hourly Weather Piwniczna Zdroj

    Today, 15 August, Wednesday

    Time Temperature Precipitation Wind Pressure Humidity
    00:00 +16°C° 0.6 mm 1 mps 701 mmHg 94%
    01:00 +16°C° 0 mm 1 mps 702 mmHg 94%
    02:00 +16°C° 0.2 mm 1 mps 702 mmHg 94%
    03:00 +16°C° 0.2 mm 1 mps 702 mmHg 94%
    04:00 +16°C° 0.2 mm 1 mps 702 mmHg 95%
    05:00 +16°C° 0.3 mm 1 mps 703 mmHg 94%
    06:00 +18°C° 0.3 mm 1 mps 703 mmHg 93%
    07:00 +18°C° 0.3 mm 1 mps 703 mmHg 92%
    08:00 +18°C° 0.4 mm 1 mps 703 mmHg 88%
    09:00 +19°C° 0.4 mm 1 mps 704 mmHg 85%
    10:00 +19°C° 0.4 mm 1 mps 704 mmHg 82%
    11:00 +19°C° 0.1 mm 2 mps 704 mmHg 77%
    12:00 +20°C° 0.1 mm 2 mps 704 mmHg 73%
    13:00 +21°C° 0.1 mm 2 mps 704 mmHg 68%
    14:00 +21°C° 0.1 mm 2 mps 704 mmHg 66%
    15:00 +23°C° 0.1 mm 2 mps 704 mmHg 65%
    16:00 +23°C° 0.1 mm 2 mps 704 mmHg 63%
    17:00 +20°C° 0.1 mm 2 mps 704 mmHg 71%
    18:00 +19°C° 0.1 mm 2 mps 704 mmHg 79%
    19:00 +18°C° 0.1 mm 1 mps 704 mmHg 87%
    20:00 +16°C° 0 mm 1 mps 704 mmHg 89%
    21:00 +16°C° 0 mm 1 mps 704 mmHg 91%
    22:00 +15°C° 0 mm 1 mps 704 mmHg 94%
    23:00 +15°C° 0 mm 1 mps 704 mmHg 94%

    Tomorrow, 16 August, Thursday

    Time Temperature Precipitation Wind Pressure Humidity
    00:00 +14°C° 0 mm 1 mps 704 mmHg 95%
    01:00 +14°C° 0 mm 1 mps 705 mmHg 96%
    02:00 +14°C° 0 mm 1 mps 705 mmHg 96%
    03:00 +14°C° 0 mm 1 mps 705 mmHg 96%
    04:00 +14°C° 0 mm 1 mps 705 mmHg 96%
    05:00 +15°C° 0 mm 1 mps 705 mmHg 93%
    06:00 +16°C° 0 mm 1 mps 705 mmHg 90%
    07:00 +17°C° 0 mm 2 mps 705 mmHg 88%
    08:00 +18°C° 0 mm 2 mps 706 mmHg 81%
    09:00 +20°C° 0 mm 2 mps 706 mmHg 74%
    10:00 +21°C° 0 mm 2 mps 706 mmHg 67%
    11:00 +23°C° 0.1 mm 2 mps 706 mmHg 65%
    12:00 +23°C° 0.1 mm 2 mps 706 mmHg 63%
    13:00 +24°C° 0.1 mm 3 mps 705 mmHg 61%
    14:00 +24°C° 0.2 mm 3 mps 705 mmHg 62%
    15:00 +24°C° 0.2 mm 3 mps 705 mmHg 64%
    16:00 +24°C° 0.2 mm 3 mps 705 mmHg 65%
    17:00 +21°C° 0.1 mm 2 mps 704 mmHg 73%
    18:00 +19°C° 0.1 mm 2 mps 704 mmHg 81%
    19:00 +18°C° 0.1 mm 1 mps 704 mmHg 89%
    20:00 +18°C° 0 mm 1 mps 704 mmHg 90%
    21:00 +16°C° 0 mm 1 mps 704 mmHg 92%
    22:00 +15°C° 0 mm 1 mps 704 mmHg 94%
    23:00 +15°C° 0 mm 1 mps 704 mmHg 94%

    Day after tomorrow, 17 August, Friday

    Time Temperature Precipitation Wind Pressure Humidity
    00:00 +15°C° 0 mm 1 mps 704 mmHg 94%
    01:00 +15°C° 0 mm 1 mps 704 mmHg 95%
    02:00 +14°C° 0 mm 1 mps 704 mmHg 95%
    03:00 +14°C° 0 mm 1 mps 704 mmHg 95%
    04:00 +14°C° 0 mm 1 mps 703 mmHg 95%
    05:00 +15°C° 0 mm 1 mps 704 mmHg 92%
    06:00 +18°C° 0 mm 1 mps 704 mmHg 88%
    07:00 +19°C° 0 mm 1 mps 704 mmHg 85%
    08:00 +21°C° 0 mm 1 mps 705 mmHg 77%
    09:00 +23°C° 0 mm 2 mps 705 mmHg 68%
    10:00 +24°C° 0 mm 2 mps 705 mmHg 60%
    11:00 +25°C° 0 mm 2 mps 705 mmHg 58%
    12:00 +26°C° 0 mm 2 mps 705 mmHg 56%
    13:00 +27°C° 0 mm 2 mps 704 mmHg 54%
    14:00 +26°C° 0.5 mm 2 mps 704 mmHg 59%
    15:00 +25°C° 0.5 mm 2 mps 704 mmHg 64%
    16:00 +25°C° 0.5 mm 1 mps 704 mmHg 69%
    17:00 +23°C° 0.5 mm 1 mps 704 mmHg 75%
    18:00 +21°C° 0.5 mm 1 mps 703 mmHg 81%
    19:00 +19°C° 0.5 mm 1 mps 703 mmHg 87%
    20:00 +19°C° 0 mm 1 mps 703 mmHg 89%
    21:00 +18°C° 0 mm 1 mps 703 mmHg 90%
    22:00 +16°C° 0 mm 1 mps 704 mmHg 92%
    23:00 +16°C° 0 mm 1 mps 704 mmHg 92%

    18 August, Saturday

    Time Temperature Precipitation Wind Pressure Humidity
    00:00 +16°C° 0 mm 1 mps 704 mmHg 92%
    01:00 +16°C° 0 mm 1 mps 704 mmHg 92%
    02:00 +15°C° 0 mm 1 mps 704 mmHg 92%
    03:00 +15°C° 0 mm 1 mps 704 mmHg 93%
    04:00 +15°C° 0 mm 1 mps 704 mmHg 93%
    05:00 +16°C° 0 mm 1 mps 704 mmHg 90%
    06:00 +19°C° 0 mm 1 mps 705 mmHg 87%
    07:00 +18°C° 0 mm 0 mps 705 mmHg 84%
    08:00 +22°C° 0.1 mm 1 mps 705 mmHg 77%
    09:00 +23°C° 0.1 mm 1 mps 706 mmHg 69%
    10:00 +25°C° 0.1 mm 1 mps 706 mmHg 61%
    11:00 +26°C° 0.1 mm 1 mps 706 mmHg 58%
    12:00 +27°C° 0.1 mm 1 mps 706 mmHg 55%
    13:00 +27°C° 0.1 mm 1 mps 706 mmHg 51%
    14:00 +27°C° 0.3 mm 2 mps 706 mmHg 55%
    15:00 +26°C° 0.3 mm 2 mps 706 mmHg 58%
    16:00 +26°C° 0.3 mm 2 mps 705 mmHg 62%
    17:00 +24°C° 0.4 mm 2 mps 705 mmHg 70%
    18:00 +22°C° 0.4 mm 1 mps 705 mmHg 78%
    19:00 +20°C° 0.4 mm 1 mps 705 mmHg 86%
    20:00 +19°C° 0 mm 1 mps 705 mmHg 87%
    21:00 +19°C° 0 mm 1 mps 706 mmHg 88%
    22:00 +18°C° 0 mm 1 mps 706 mmHg 89%
    23:00 +18°C° 0 mm 1 mps 706 mmHg 90%

    19 August, Sunday

    Time Temperature Precipitation Wind Pressure Humidity
    00:00 +18°C° 0 mm 1 mps 706 mmHg 90%
    01:00 +16°C° 0 mm 1 mps 706 mmHg 90%
    02:00 +16°C° 0 mm 1 mps 706 mmHg 91%
    03:00 +16°C° 0 mm 1 mps 706 mmHg 91%
    04:00 +16°C° 0 mm 1 mps 706 mmHg 92%
    05:00 +18°C° 0 mm 1 mps 706 mmHg 89%
    06:00 +19°C° 0 mm 1 mps 706 mmHg 86%
    07:00 +20°C° 0 mm 1 mps 707 mmHg 84%
    08:00 +22°C° 0.3 mm 1 mps 707 mmHg 78%
    09:00 +23°C° 0.3 mm 2 mps 707 mmHg 71%
    10:00 +24°C° 0.3 mm 2 mps 708 mmHg 65%
    11:00 +25°C° 0.3 mm 2 mps 707 mmHg 63%
    12:00 +25°C° 0.3 mm 2 mps 707 mmHg 60%
    13:00 +26°C° 0.3 mm 2 mps 707 mmHg 58%
    14:00 +26°C° 0.3 mm 2 mps 707 mmHg 60%
    15:00 +25°C° 0.3 mm 2 mps 707 mmHg 63%
    16:00 +25°C° 0.3 mm 3 mps 707 mmHg 65%
    17:00 +23°C° 0.2 mm 2 mps 707 mmHg 73%
    18:00 +20°C° 0.2 mm 2 mps 707 mmHg 80%
    19:00 +19°C° 0.2 mm 1 mps 706 mmHg 87%
    20:00 +19°C° 0 mm 1 mps 706 mmHg 88%
    21:00 +18°C° 0 mm 1 mps 707 mmHg 90%
    22:00 +16°C° 0 mm 1 mps 707 mmHg 91%
    23:00 +16°C° 0 mm 1 mps 706 mmHg 91%

    20 August, Monday

    Time Temperature Precipitation Wind Pressure Humidity
    00:00 +16°C° 0 mm 1 mps 706 mmHg 91%
    01:00 +15°C° 0 mm 1 mps 706 mmHg 92%
    02:00 +15°C° 0 mm 1 mps 706 mmHg 92%
    03:00 +15°C° 0 mm 1 mps 706 mmHg 92%
    04:00 +15°C° 0 mm 1 mps 706 mmHg 92%
    05:00 +16°C° 0 mm 1 mps 706 mmHg 88%
    06:00 +18°C° 0 mm 1 mps 707 mmHg 84%
    07:00 +19°C° 0 mm 1 mps 707 mmHg 80%
    08:00 +21°C° 0 mm 1 mps 707 mmHg 72%
    09:00 +21°C° 0 mm 2 mps 707 mmHg 64%
    10:00 +24°C° 0 mm 2 mps 708 mmHg 56%
    11:00 +25°C° 0 mm 2 mps 708 mmHg 53%
    12:00 +25°C° 0 mm 2 mps 707 mmHg 50%
    13:00 +26°C° 0 mm 2 mps 707 mmHg 47%
    14:00 +26°C° 0 mm 2 mps 707 mmHg 49%
    15:00 +26°C° 0 mm 2 mps 707 mmHg 50%
    16:00 +25°C° 0 mm 2 mps 707 mmHg 52%
    17:00 +23°C° 0 mm 2 mps 707 mmHg 60%
    18:00 +21°C° 0 mm 1 mps 706 mmHg 69%
    19:00 +19°C° 0 mm 1 mps 706 mmHg 78%
    20:00 +18°C° 0 mm 1 mps 706 mmHg 81%
    21:00 +18°C° 0 mm 1 mps 706 mmHg 83%
    22:00 +16°C° 0 mm 1 mps 706 mmHg 86%
    23:00 +16°C° 0 mm 1 mps 706 mmHg 86%
    Show more